Location: Newark
(47.5000°N, 4.6167°E)
Time: 01:13:11
(UTC+00:00)

ISS - Pass Details

Date: 15 May 2021
Orbit: 417 x 422 km, 51.6° (Epoch: 14 June)

Event Time Altitude Azimuth Distance (km) Brightness Sun altitude
Rises 21:36:31 0° 248° (WSW) 2,358 0.2 -18.1°
Reaches altitude 10° 21:38:37 10° 249° (WSW) 1,497 -0.9 -18.2°
Maximum altitude 21:41:59 80° 337° (NNW) 431 -3.7 -18.5°
Drops below altitude 10° 21:45:22 10° 65° (ENE) 1,506 -1.0 -18.8°
Sets 21:47:29 0° 66° (ENE) 2,374 0.0 -18.9°
